Welcome to the New NWS' Forecast!
Most changes are behind the scenes, but click here for differences you might notice.
Latest weather observations around

Mexia Limestone County Airport (KLXY)

Using English Units (Switch to International System of Units)
Date/ Time (CDT) Wind (mph) Vis. (mi) Weather Sky Cond. Temp (°F) Rel. Humidity Wind Chill (°F) Heat Index (°F) Pressure Precip. (in)
Air Dwpt 6 hour Altimeter (inHg) Sea level (inHg) 1 hr 3 hr 6 hr
Max Min
Sep 19 22:55 SE 8 10 Clear CLR 80 71     74%   83 29.94        
Sep 19 22:35 S 9 10 Clear CLR 80 70     73%   83 29.93        
Sep 19 22:15 S 8 10 Clear CLR 80 70     71%   83 29.93        
Sep 19 21:55 S 10 10 Clear CLR 81 69     69%   84 29.92        
Sep 19 21:35 Calm 10 Partly Cloudy SCT050 81 69     68%   84 29.91        
Sep 19 21:15 Calm 10 Partly Cloudy SCT050 81 69     66%   85 29.9        
Sep 19 20:55 Calm 10 Clear CLR 83 68     62%   86 29.9        
Sep 19 20:35 Calm 10 Clear CLR 83 68     60%   86 29.89        
Sep 19 20:15 S 3 10 Clear CLR 83 68     62%   86 29.88        
Sep 19 19:55 SSE 3 10 Clear CLR 85 67     55%   88 29.87        
Sep 19 19:35 SSE 5 10 Clear CLR 87 67     52%   90 29.87        
Sep 19 19:15 SSE 6 10 Clear CLR 88 67     50%   91 29.87        
Sep 19 18:55 SE 5 10 Clear CLR 90 67     46%   93 29.87        
Sep 19 18:35 SSE 9 10 Clear CLR 91 67     45%   94 29.88        
Sep 19 18:15 SSE 10 10 Partly Cloudy SCT055 91 67     46%   95 29.88        
Sep 19 17:55 S 15 10 Partly Cloudy SCT055 92 68     45%   97 29.87        
Sep 19 17:35 SSE 10 10 Clear CLR 93 66     42%   96 29.87        
Sep 19 17:15 SSE 9 10 Clear CLR 93 67     44%   97 29.88        
Sep 19 16:55 SSE 10 10 Clear CLR 92 70     48%   98 29.89        
Sep 19 16:35 SSE 9 10 Partly Cloudy SCT050 92 70     48%   98 29.89        
Sep 19 16:15 S 13 10 Partly Cloudy SCT050 93 69     46%   99 29.9        
Sep 19 15:55 SSE 10 10 Clear CLR 93 70     47%   99 29.9        
Sep 19 15:35 SE 8 10 Partly Cloudy SCT050 92 69     48%   97 29.91        
Sep 19 15:15 S 11 10 Partly Cloudy SCT050 93 70     46%   99 29.92        
Sep 19 14:55 SSE 6 10 Partly Cloudy SCT050 SCT060 93 69     47%   98 29.92        
Sep 19 14:35 SSE 6 10 Partly Cloudy SCT048 SCT060 93 71     49%   100 29.94        
Sep 19 14:15 SSE 9 10 Partly Cloudy SCT048 92 70     49%   99 29.94        
Sep 19 13:55 SSE 5 10 Partly Cloudy SCT048 90 71     53%   96 29.95        
Sep 19 13:35 S 9 10 Partly Cloudy SCT047 92 71     50%   99 29.96        
Sep 19 13:15 SSE 6 10 Clear CLR 92 71     50%   98 29.97        
Sep 19 12:55 SE 8 10 Partly Cloudy SCT041 SCT050 91 71     52%   98 29.97        
Sep 19 12:35 S 13 10 Mostly Cloudy BKN039 BKN050 90 71     54%   97 29.98        
Sep 19 12:15 SSW 10 10 Partly Cloudy SCT039 90 73     58%   98 29.98        
Sep 19 11:55 S 8 10 Clear CLR 89 72     58%   95 29.99        
Sep 19 11:35 SE 3 10 Clear CLR 88 72     60%   95 29.99        
Sep 19 11:15 S 3 10 Clear CLR 87 72     62%   93 29.99        
Sep 19 10:55 Calm 10 Clear CLR 86 72     64%   92 29.99        
Sep 19 10:35 SSW 8 10 Clear CLR 84 72     67%   90 29.99        
Sep 19 10:15 SSW 5 10 Clear CLR 84 72     69%   90 29.99        
Sep 19 09:35 SSW 5 10 Clear CLR 81 72     76%   85 29.97        
Sep 19 09:15 SW 3 10 Clear CLR 80 72     79%   83 29.97        
Sep 19 08:55 ESE 6 10 Clear CLR 78 72     82%   79 29.97        
Sep 19 08:35 ESE 6 10 Clear CLR 76 71     85%   77 29.97        
Sep 19 08:15 Calm 10 Clear CLR 74 72     93%   76 29.97        
Sep 19 07:55 Calm 10 Clear CLR 73 71     96%   74 29.97        
Sep 19 07:35 Calm 10 Clear CLR 72 71     95%   74 29.97        
Sep 19 07:15 Calm 10 Clear CLR 72 71     95%   74 29.96        
Sep 19 06:55 Calm 10 Clear CLR 72 71     94%   74 29.96        
Sep 19 06:35 Calm 10 Clear CLR 73 71     93%   74 29.96        
Sep 19 06:15 Calm 10 Clear CLR 73 71     93%   74 29.96        
Sep 19 05:55 SSW 6 10 Clear CLR 73 70     90%   74 29.95        
Sep 19 05:35 S 6 10 Clear CLR 73 70     91%   74 29.95        
Sep 19 05:15 Calm 10 Clear CLR 74 70     88%   75 29.94        
Sep 19 04:55 SE 3 10 Clear CLR 74 70     89%   75 29.94        
Sep 19 04:35 Calm 10 Clear CLR 74 70     87%   76 29.94        
Sep 19 04:15 Calm 10 Clear CLR 75 70     85%   76 29.94        
Sep 19 03:55 S 6 10 Clear CLR 75 70     84%   76 29.94        
Sep 19 03:35 S 3 10 Clear CLR 75 70     83%   77 29.94        
Sep 19 03:15 Calm 10 Clear CLR 76 70     82%   77 29.94        
Sep 19 02:55 Calm 10 Clear CLR 76 70     82%   77 29.94        
Sep 19 02:35 Calm 10 Clear CLR 76 71     83%   78 29.94        
Sep 19 02:15 SSW 10 10 Clear CLR 76 71     85%   77 29.94        
Sep 19 01:55 SSW 8 10 Clear CLR 77 71     81%   79 29.94        
Sep 19 01:35 SSW 8 10 Clear CLR 78 71     81%   79 29.94        
Sep 19 01:15 SSW 10 10 Clear CLR 77 71     83%   78 29.94        
Sep 19 00:55 S 10 10 Clear CLR 78 72     80%   80 29.94        
Sep 19 00:35 SSW 10 10 Clear CLR 78 72     80%   80 29.94        
Sep 19 00:15 SSW 10 10 Clear CLR 79 72     79%   82 29.94        
Sep 18 23:55 SSW 11 10 Clear CLR 79 72     78%   82 29.94        
Sep 18 23:35 SSW 10 10 Clear CLR 79 71     78%   82 29.94        
Sep 18 23:15 SSW 11 10 Clear CLR 80 71     75%   83 29.94        
Sep 18 22:55 SSW 9 10 Clear CLR 80 71     73%   84 29.93        
Sep 18 22:35 Calm 10 Clear CLR 80 71     74%   84 29.93        
Sep 18 22:15 S 6 10 Clear CLR 81 71     71%   84 29.92        
Sep 18 21:55 Calm 10 Clear CLR 81 71     70%   86 29.92        
Sep 18 21:35 Calm 10 Clear CLR 82 70     68%   86 29.91        
Sep 18 21:15 Calm 10 Clear CLR 83 70     66%   87 29.91        
Sep 18 20:55 Calm 10 Clear CLR 83 70     64%   87 29.9        
Sep 18 20:35 Calm 10 Clear CLR 84 70     64%   88 29.89        
Sep 18 20:15 Calm 10 Clear CLR 85 69     60%   89 29.89        
Sep 18 19:55 SE 3 10 Clear CLR 87 69     56%   91 29.89        
Sep 18 19:35 SE 3 10 Clear CLR 88 69     55%   92 29.89        
Sep 18 19:15 SE 6 10 Clear CLR 89 69     51%   94 29.89        
Sep 18 18:55 SSE 6 10 Clear CLR 91 69     50%   96 29.89        
Sep 18 18:35 SSE 5 10 Clear CLR 92 68     46%   96 29.89        
Sep 18 18:15 SSW 6 10 Clear CLR 92 68     45%   97 29.89        
Sep 18 17:55 S 6 10 Clear CLR 93 68     44%   97 29.89        
Sep 18 17:35 S 7 10 Partly Cloudy SCT060 93 68     44%   98 29.9        
Sep 18 17:15 SSE 6 10 Partly Cloudy SCT060 93 68     44%   98 29.9        
Sep 18 16:55 SW 7 10 Clear CLR 93 69     45%   98 29.91        
Sep 18 16:35 S 3 10 Clear CLR 93 69     45%   98 29.91        
Sep 18 16:15 SSW 7 10 Partly Cloudy SCT060 93 70     46%   99 29.92        
Sep 18 15:55 SW 7 10 Partly Cloudy SCT050 SCT065 SCT075 93 70     46%   99 29.92        
Sep 18 15:35 S 5 10 Partly Cloudy SCT050 SCT110 91 70     50%   96 29.92        
Sep 18 15:15 S 8 10 Partly Cloudy SCT050 SCT065 91 69     48%   97 29.93        
Sep 18 14:55 SSE 3 10 Mostly Cloudy SCT050 BKN065 92 70     48%   98 29.94        
Sep 18 14:35 SE 3 10 Mostly Cloudy BKN050 92 70     49%   98 29.94        
Sep 18 14:15 WSW 10 10 Partly Cloudy SCT050 SCT070 92 71     50%   99 29.95        
Sep 18 13:35 SSW 9 10 Clear CLR 91 71     51%   98 29.97        
Sep 18 13:15 SSW 13 10 Clear CLR 91 71     52%   97 29.98        
Sep 18 12:55 S 9 10 Clear CLR 90 71     54%   96 29.99        
Sep 18 12:35 S 3 10 Clear CLR 90 71     54%   96 30        
Sep 18 12:15 SW 3 10 Clear CLR 89 71     55%   96 30.01        
Sep 18 11:35 Calm 10 Clear CLR 88 71     58%   94 30.02        
Sep 18 11:15 SW 7 10 Clear CLR 87 72     61%   93 30.02        
Sep 18 10:55 W 10 10 Clear CLR 86 72     62%   92 30.03        
Sep 18 10:35 SSW 7 10 Clear CLR 85 71     62%   90 30.03        
Sep 18 10:15 WSW 6 10 Clear CLR 84 72     66%   90 30.02        
Sep 18 09:55 WSW 6 10 Clear CLR 83 72     69%   88 30.02        
Sep 18 09:35 SW 5 10 Clear CLR 81 72     73%   86 30.02        
Sep 18 09:15 SW 5 10 Clear CLR 80 72     77%   83 30.02        
Sep 18 08:55 S 5 10 Clear CLR 78 72     82%   79 30.02        
Sep 18 08:35 Calm 10 Clear CLR 76 71     84%   78 30.02        
Sep 18 08:15 Calm 10 Clear CLR 75 71     87%   76 30.02        
Sep 18 07:55 Calm 10 Clear CLR 73 69     87%   75 30.01        
Sep 18 07:35 Calm 10 Clear CLR 72 69     88%   74 30        
Sep 18 07:15 SW 3 10 Clear CLR 72 68     87%   74 29.99        
Sep 18 06:55 WSW 3 10 Clear CLR 73 69     86%   74 29.99        
Sep 18 06:35 SE 3 10 Clear CLR 73 69     86%   74 29.98        
Sep 18 06:15 Calm 10 Clear CLR 74 69     87%   75 29.98        
Sep 18 05:55 SW 5 10 Clear CLR 74 69     84%   75 29.98        
Sep 18 05:35 SW 5 10 Clear CLR 74 69     86%   75 29.97        
Sep 18 05:15 ESE 7 10 Clear CLR 74 70     86%   75 29.97        
Sep 18 04:55 SSE 5 10 Clear CLR 74 70     86%   75 29.97        
Sep 18 04:35 ESE 5 10 Clear CLR 75 70     85%   76 29.97        
Sep 18 04:15 ESE 6 10 Clear CLR 76 69     80%   77 29.97        
Sep 18 03:55 ESE 6 10 Clear CLR 75 70     84%   76 29.97        
Sep 18 03:35 ESE 5 10 Clear CLR 75 70     84%   76 29.97        
Sep 18 03:15 SSW 3 10 Clear CLR 76 70     83%   77 29.98        
Sep 18 02:55 Calm 10 Clear CLR 76 70     81%   77 29.98        
Sep 18 02:35 Calm 10 Clear CLR 76 70     80%   78 29.98        
Sep 18 02:15 SSW 10 10 Clear CLR 77 70     78%   78 29.98        
Sep 18 01:55 SSW 3 10 Clear CLR 76 70     80%   77 29.98        
Sep 18 01:35 SSW 10 10 Clear CLR 78 70     76%   79 29.98        
Sep 18 01:15 SSW 10 10 Clear CLR 78 70     76%   79 29.98        
Sep 18 00:55 SSW 10 10 Clear CLR 78 70     77%   79 29.98        
Sep 18 00:35 SSW 9 10 Clear CLR 78 70     75%   79 29.98        
Sep 18 00:15 SSW 10 10 Clear CLR 78 70     76%   79 29.98        
Sep 17 23:55   10 Clear CLR 79 70     73%   82 29.98        
Sep 17 23:35 SSW 10 10 Clear CLR 80 69     71%   83 29.98        
Sep 17 23:15 SSW 10 10 Clear CLR 80 69     71%   83 29.98        
Sep 17 22:55   10 Clear CLR 80 69     70%   82 29.98        
Sep 17 22:35 SSW 10 10 Clear CLR 80 69     70%   83 29.97        
Sep 17 22:15 Calm 10 Clear CLR 80 69     68%   83 29.97        
Sep 17 21:55 Calm 10 Clear CLR 80 69     68%   83 29.96        
Sep 17 21:35 Calm 10 Clear CLR 81 68     64%   84 29.96        
Sep 17 21:15 Calm 10 Clear CLR 83 68     61%   85 29.95        
Sep 17 20:55 Calm 10 Clear CLR 82 68     62%   85 29.94        
Sep 17 20:35 Calm 10 Clear CLR 84 68     59%   87 29.93        
Sep 17 20:15 S 3 10 Clear CLR 82 70     67%   86 29.92        
Sep 17 19:55 SSW 8 10 Clear CLR 84 70     62%   88 29.92        
Sep 17 19:35 Calm 10 Clear CLR 85 71     61%   90 29.92        
Sep 17 19:15 Calm 10 Clear CLR 88 71     56%   94 29.92        
Sep 17 18:55 Calm 10 Clear CLR 89 69     51%   94 29.92        
Sep 17 18:35 Calm 10 Clear CLR 90 67     47%   94 29.92        
Sep 17 18:15 WSW 6 10 Clear CLR 90 68     47%   94 29.92        
Sep 17 17:55 SW 8 10 Clear CLR 91 68     46%   95 29.92        
Sep 17 17:35 SE 6 10 Clear CLR 91 68     48%   95 29.92        
Sep 17 17:15 WSW 6 10 Clear CLR 91 69     48%   96 29.92        
Sep 17 16:55 SW 6 10 Clear CLR 91 68     47%   96 29.93        
Sep 17 16:35 Calm 10 Clear CLR 90 70     51%   95 29.93        
Sep 17 16:15 SSW 3 10 Clear CLR 90 69     52%   95 29.94        
Sep 17 15:55 SSE 6 10 Clear CLR 90 68     48%   95 29.94        
Sep 17 15:35 S 5 10 Clear CLR 91 69     50%   96 29.95        
Sep 17 15:15 SSW 6 10 Clear CLR 91 69     49%   96 29.95        
Sep 17 14:55 WSW 3 10 Clear CLR 90 70     53%   95 29.96        
Sep 17 14:35 SSW 5 10 Mostly Cloudy BKN050 90 68     49%   94 29.97        
Sep 17 14:15 SSW 10 10 Partly Cloudy SCT050 91 71     52%   97 29.98        
Sep 17 13:55 W 7 10 Mostly Cloudy SCT041 BKN049 89 71     56%   95 29.98        
Sep 17 13:35 Calm 10 Partly Cloudy SCT041 SCT047 87 69     56%   91 29.99        
Sep 17 13:15 Calm 10 Clear CLR 88 70     55%   93 29.99        
Sep 17 12:55 SW 6 10 Clear CLR 88 70     55%   93 30        
Sep 17 12:35 SW 5 10 Clear CLR 87 69     54%   92 30.01        
Sep 17 12:15 WSW 7 10 Clear CLR 87 69     55%   91 30.02        
Sep 17 11:55 WSW 8 10 Clear CLR 87 71     59%   92 30.02        
Sep 17 11:35 WSW 7 10 Clear CLR 86 70     59%   90 30.02        
Sep 17 11:15 W 8 10 Clear CLR 85 71     62%   90 30.03        
Sep 17 10:55 W 7 10 Clear CLR 85 71     63%   89 30.03        
Sep 17 10:35 WSW 9 10 Clear CLR 84 70     62%   88 30.03        
Sep 17 10:15 WSW 6 10 Clear CLR 83 70     65%   87 30.02        
Sep 17 09:55 W 6 10 Clear CLR 82 70     67%   86 30.02        
Sep 17 09:35 W 5 10 Clear CLR 80 72     78%   84 30.01        
Sep 17 09:15 W 5 10 Clear CLR 78 72     82%   80 30        
Sep 17 08:55 W 3 10 Clear CLR 78 72     82%   79 30        
Sep 17 08:35 W 5 10 Clear CLR 78 72     81%   80 29.99        
Sep 17 08:15 WSW 5 10 Clear CLR 76 73     88%   78 29.99        
Sep 17 07:55 WSW 3 10 Clear CLR 75 72     92%   76 29.98        
Sep 17 07:35 WSW 5 10 Clear CLR 74 72     93%   76 29.97        
Sep 17 07:15 NE 5 10 Clear CLR 73 72     97%   75 29.96        
Sep 17 06:55 WSW 5 10 Clear CLR 74 72     94%   75 29.96        
Sep 17 06:35 W 5 10 Clear CLR 74 71     89%   76 29.95        
Sep 17 06:15 W 6 10 Clear CLR 75 71     89%   76 29.95        
Sep 17 05:55 W 7 10 Clear CLR 75 71     87%   77 29.95        
Sep 17 05:35 W 5 10 Clear CLR 75 71     88%   76 29.94        
Sep 17 05:15 W 5 10 Clear CLR 74 71     89%   76 29.94        
Sep 17 04:55 WSW 6 10 Clear CLR 74 71     89%   76 29.94        
Sep 17 04:35 W 5 10 Clear CLR 74 71     89%   76 29.94        
Sep 17 04:15 W 6 10 Clear CLR 74 71     88%   76 29.94        
Sep 17 03:55 WSW 6 10 Clear CLR 75 71     88%   76 29.94        
Sep 17 03:35 WSW 6 10 Clear CLR 75 71     87%   77 29.94        
Sep 17 03:15 WSW 6 10 Clear CLR 75 71     87%   77 29.94        
Sep 17 02:55 WSW 5 10 Clear CLR 75 71     87%   77 29.94        
Sep 17 02:35 WSW 5 10 Clear CLR 74 71     89%   76 29.94        
Sep 17 02:15 Calm 10 Clear CLR 75 71     86%   77 29.94        
Sep 17 01:55 Calm 10 Clear CLR 75 71     87%   77 29.94        
Sep 17 01:35 Calm 10 Clear CLR 75 71     87%   77 29.93        
Sep 17 01:15 Calm 10 Clear CLR 76 71     87%   77 29.94        
Sep 17 00:55 Calm 10 Clear CLR 77 72     84%   78 29.94        
Sep 17 00:35 Calm 10 Clear CLR 76 71     84%   78 29.94        
Sep 17 00:15 Calm 10 Clear CLR 77 72     84%   78 29.94        
Sep 16 23:55 SSW 11 10 Clear CLR 77 72     84%   78 29.94        
Sep 16 23:35 SSW 5 10 Clear CLR 76 72     85%   78 29.94        
Sep 16 23:15 SW 3 10 Clear CLR 77 72     85%   78 29.94        
Sep 16 22:55 SSW 8 10 Clear CLR 77 72     82%   79 29.94        
Sep 16 22:35 SE 3 10 Clear CLR 78 71     79%   80 29.94        
Sep 16 22:15 Calm 10 Clear CLR 78 72     82%   79 29.94        
Sep 16 21:55 Calm 10 Clear CLR 79 72     79%   82 29.94        
Sep 16 21:35 E 3 10 Clear CLR 78 72     80%   80 29.94        
Sep 16 21:15 Calm 10 Clear CLR 79 72     78%   82 29.93        
Sep 16 20:55 E 9 10 Clear CLR 79 72     78%   82 29.93        
Sep 16 20:35 E 8 10 Clear CLR 80 72     75%   84 29.93        
Sep 16 20:15 E 6 10 Clear CLR 81 71     72%   85 29.92        
Sep 16 19:55 Calm 10 Clear CLR 82 71     69%   86 29.92        
Sep 16 19:35 ENE 3 10 Clear CLR 83 71     65%   88 29.92        
Sep 16 19:15 ENE 7 10 Clear CLR 86 72     63%   93 29.91        
Sep 16 18:55 Calm 10 Clear CLR 86 72     63%   93 29.9        
Sep 16 18:35 N 3 10 Clear CLR 88 72     61%   95 29.9        
Sep 16 18:15 NNW 5 10 Clear CLR 88 72     60%   95 29.89        
Sep 16 17:55 WNW 6 10 Clear CLR 87 72     61%   94 29.89        
Sep 16 17:35 NNW 7 10 Partly Cloudy SCT070 89 72     58%   96 29.89        
Sep 16 17:15 Calm 10 Mostly Cloudy SCT050 BKN060 88 72     61%   95 29.89        
Sep 16 16:55 Calm 10 Cloudy OVC050 89 72     58%   95 29.89        
Sep 16 16:35 NNW 3 10 Cloudy BKN050 OVC060 91 70     51%   97 29.89        
Sep 16 16:15 WSW 3 10 Cloudy BKN050 BKN060 OVC110 90 70     53%   95 29.9        
Sep 16 15:55 SSW 3 10 Cloudy OVC048 90 70     53%   95 29.9        
Sep 16 15:35 SW 3 10 Cloudy BKN048 OVC050 89 70     54%   95 29.91        
Sep 16 15:15 Calm 10 Cloudy SCT045 OVC050 89 70     54%   95 29.92        
Sep 16 14:55 SW 7 10 Mostly Cloudy BKN045 BKN050 90 71     55%   96 29.92        
Sep 16 14:35 Calm 10 Mostly Cloudy BKN049 BKN080 89 71     55%   95 29.93        
Sep 16 14:15 SW 3 10 Partly Cloudy SCT040 SCT050 89 71     56%   94 29.94        
Sep 16 13:55 S 5 10 Cloudy BKN040 OVC050 90 72     56%   97 29.95        
Sep 16 13:35 SSW 6 10 Cloudy BKN038 BKN049 OVC065 87 71     58%   93 29.96        
Sep 16 13:15 WSW 3 10 Mostly Cloudy BKN040 BKN047 88 72     60%   94 29.97        
Sep 16 12:55 SSW 6 10 Cloudy BKN037 OVC042 88 72     59%   94 29.97        
Sep 16 12:35 Calm 10 Mostly Cloudy BKN037 BKN045 BKN050 86 72     63%   92 29.98        
Sep 16 12:15 SSE 6 10 Partly Cloudy SCT037 87 72     60%   93 29.99        
Sep 16 11:55 NE 3 10 Clear CLR 87 72     60%   94 29.99        
Sep 16 11:35 Calm 10 Partly Cloudy SCT028 86 72     64%   92 29.99        
Sep 16 11:15 NE 3 10 Clear CLR 85 72     66%   91 29.99        
Sep 16 10:55 Calm 10 Clear CLR 84 72     68%   90 29.99        
Sep 16 10:35 E 5 10 Clear CLR 83 72     70%   88 29.99        
Sep 16 10:15 SE 6 10 Clear CLR 81 72     74%   86 29.99        
Sep 16 09:55 S 8 10 Clear CLR 80 73     78%   85 29.99        
Sep 16 09:35 S 7 10 Clear CLR 79 72     81%   82 29.98        
Sep 16 09:15 S 7 10 Clear CLR 78 73     86%   79 29.98        
Sep 16 08:55 S 7 10 Clear CLR 76 74     91%   78 29.98        
Sep 16 08:35 S 7 10 Clear CLR 75 74     98%   77 29.98        
Sep 16 08:15 SW 6 7 Clear CLR 74 73     98%   75 29.97        
Sep 16 07:55 SSW 5 5 Fog/Mist CLR 72 72     98%   74 29.97        
Sep 16 07:35 W 5 7 Clear CLR 72 72     98%   74 29.96        
Sep 16 07:15 W 5 7 Clear CLR 72 72     99%   73 29.96        
Sep 16 06:55 WSW 5 10 Clear CLR 72 72     98%   74 29.95        
Sep 16 06:35 NW 5 7 Clear CLR 72 71     98%   73 29.94        
Sep 16 06:15 WNW 6 5 Fog/Mist CLR 72 71     99%   73 29.94        
Sep 16 05:55 WNW 5 10 Clear CLR 72 72     98%   74 29.94        
Sep 16 05:35 WNW 7 7 Clear CLR 72 72     98%   74 29.93        
Sep 16 05:15 WNW 7 7 Clear CLR 72 72     98%   74 29.93        
Sep 16 04:55 W 7 7 Clear CLR 72 72     98%   74 29.94        
Sep 16 04:35 N 7 10 Clear CLR 72 72     98%   74 29.94        
Sep 16 04:15 WNW 3 10 Clear CLR 72 72     99%   74 29.94        
Sep 16 03:55 NNW 5 10 Clear CLR 73 72     99%   74 29.94        
Sep 16 03:35 WNW 7 10 Clear CLR 73 72     98%   74 29.94        
Sep 16 03:15 NNW 5 10 Partly Cloudy SCT050 73 72     98%   75 29.95        
Sep 16 02:55 Calm 10 Mostly Cloudy BKN050 74 73     98%   75 29.95        
Sep 16 02:35 W 6 10 Partly Cloudy SCT050 74 73     97%   76 29.95        
Sep 16 02:15 WNW 7 10 Clear CLR 74 72     95%   76 29.95        
Sep 16 01:55 WNW 6 10 Clear CLR 74 72     94%   76 29.95        
Sep 16 01:35 WNW 6 10 Clear CLR 74 72     92%   76 29.95        
Sep 16 01:15 SSW 3 10 Clear CLR 74 72     92%   76 29.96        
Sep 16 00:55 W 5 10 Clear CLR 75 71     88%   76 29.96        
Sep 16 00:35 NNE 5 10 Clear CLR 75 71     87%   76 29.96        
Sep 16 00:15 NE 6 10 Clear CLR 75 71     87%   76 29.97        
Sep 15 23:55 NNE 5 10 Clear CLR 75 71     88%   76 29.97        
Sep 15 23:35 N 5 10 Clear CLR 75 71     86%   76 29.97        
Sep 15 23:15 SSW 3 10 Clear CLR 75 71     87%   77 29.98        
Sep 15 22:55 SSE 6 10 Clear CLR 75 71     86%   77 29.98        
Sep 15 22:35 S 5 10 Clear CLR 75 71     86%   77 29.98        
Sep 15 22:15 S 6 10 Clear CLR 76 71     84%   77 29.98        
Sep 15 21:55 N 3 10 Clear CLR 76 71     82%   78 29.96        
Sep 15 21:35 NNE 3 10 Clear CLR 77 71     82%   78 29.96        
Sep 15 21:15 NNE 5 10 Partly Cloudy SCT065 SCT095 77 71     81%   78 29.97        
Sep 15 20:55 Calm 10 Mostly Cloudy SCT050 SCT065 BKN110 78 71     80%   79 29.96        
Sep 15 20:35 NE 3 10 Partly Cloudy SCT050 SCT065 78 71     79%   79 29.95        
Sep 15 20:15 Calm 10 Partly Cloudy SCT050 79 71     76%   80 29.94        
Sep 15 19:55 ENE 3 10 Clear CLR 80 71     74%   83 29.94        
Sep 15 19:35 ENE 6 10 Clear CLR 81 71     72%   84 29.94        
Sep 15 19:15 ENE 9 10 Partly Cloudy SCT055 SCT065 SCT080 82 71     70%   87 29.93        
Sep 15 18:55 NE 11 10 Clear CLR 85 71     63%   91 29.92        
Sep 15 18:35 NE 7 10 Clear CLR 88 70     55%   93 29.92        
Sep 15 18:15 NE 9 10 Clear CLR 90 72     56%   96 29.91        
Sep 15 17:55 NNE 7 10 Partly Cloudy SCT050 88 72     58%   95 29.91        
Sep 15 17:35 ENE 6 10 Mostly Cloudy BKN060 BKN065 BKN080 90 70     52%   96 29.91        
Sep 15 17:15 NNE 5 10 Partly Cloudy SCT060 SCT075 SCT095 91 71     51%   97 29.91        
Sep 15 16:55 E 5 10 Light Drizzle SCT050 SCT075 SCT095 87 71     59%   93 29.92        
Sep 15 16:35 ENE 3 10 Mostly Cloudy BKN050 BKN100 90 69     50%   95 29.92        
Sep 15 16:15 SE 5 10 Partly Cloudy SCT050 SCT070 90 69     49%   95 29.92        
Sep 15 15:55 SSE 9 10 Partly Cloudy SCT047 SCT060 SCT085 91 69     48%   96 29.93        
Sep 15 15:35 E 3 10 Partly Cloudy SCT047 SCT070 SCT095 89 70     54%   94 29.94        
Sep 15 15:15 SSE 6 10 Mostly Cloudy BKN047 BKN060 BKN095 90 71     54%   96 29.94        
Sep 15 14:55 E 7 10 Mostly Cloudy BKN045 BKN060 90 71     54%   96 29.96        
Sep 15 14:35 NE 7 10 Partly Cloudy SCT041 SCT047 SCT060 90 71     53%   96 29.97        
Sep 15 14:15 E 7 10 Mostly Cloudy SCT041 BKN049 BKN055 88 71     57%   95 29.97        
Sep 15 13:55 NE 8 10 Mostly Cloudy SCT041 BKN050 BKN065 88 72     58%   95 29.99        
Sep 15 13:35 NE 6 10 Partly Cloudy SCT041 SCT050 SCT065 87 72     60%   94 29.99        
Sep 15 13:15 NE 3 10 Mostly Cloudy SCT034 SCT041 BKN065 87 72     62%   93 30        
Sep 15 12:55 ENE 6 10 Mostly Cloudy BKN035 87 72     62%   94 30.01        
Sep 15 12:35 NE 6 10 Partly Cloudy SCT033 87 72     61%   94 30.02        
May 14 19:55 ESE 8 10 Clear CLR 79 67     65%   80 29.87        
May 14 11:55 S 10 10 Mostly Cloudy BKN025 BKN034 80 68     67%   83 30.01        
May 14 05:15 SSE 5 10 Clear   69 68     95%     29.98        
May 14 00:15 SSE 7 10 Partly Cloudy SCT060 SCT070 75 68     78%   76 29.98        
May 13 22:35 SSE 6 10 Clear CLR 75 66     74%   76          
May 13 12:35 S 13 10 Clear   83 69     61%   87 30.04        
May 13 11:55 S 10 10 Clear   81 68     64%   84 30.05        
May 13 11:35 S 9 10 Cloudy OVC038 81 68     65%   84 30.05        
May 13 08:15 SSE 6 10 Cloudy SCT010 SCT016 OVC029 72 69     91%   73 30.04        
May 13 06:15 Calm 10 Cloudy OVC014 70 68     95%     29.99        
May 13 00:35 SE 10 10 Clear CLR 75 68     80%   76 30        
May 12 13:55 S 11 10 Partly Cloudy SCT045 SCT050 SCT065 86 66     51%   89 29.98        
May 12 08:55 SSE 13 10 Cloudy OVC012 74 69     83%   76 29.99        
May 12 06:55 SSE 6 10 Cloudy BKN014 BKN021 OVC033 72 68     90%   73 29.97        
May 11 21:35 SE 8 10 Clear CLR 73 63     69%   74 29.9        
May 11 17:55 SSE 16 10 Partly Cloudy SCT060 86 61     43%   86 29.87        
May 11 17:35 SSE 17 10 Partly Cloudy SCT060 86 61     43%   87 29.88        
May 11 12:15 S 17 10 Mostly Cloudy BKN041 82 64     55%   84 29.98        
Jun 12 04:55 SSE 5 10 Mostly Cloudy BKN011 73 72     98%   74 29.92        
Notice The following observation data may not be complete
Jun 12 03:15   10 Cloudy OVC015          %              
Jun 12 02:35 SSE 8 10 Clear CLR 74 72     94%   76 29.92        
Jun 11 22:55 ESE 8 10 Partly Cloudy SCT044 SCT050 78 70     77%   79 29.91        
Jun 11 20:55 E 10 10 Clear CLR 80 68     68%   83 29.89        
Jun 11 18:35 SE 13 10 Partly Cloudy SCT050 87 66     50%   90 29.87        
Jun 11 17:15 SE 13 10 Clear   88 66     48%   91 29.89        
Jun 11 15:15 SE 13 10 Clear CLR 87 65     48%   89 29.92        
Jun 11 10:35 SSE 18 10 Partly Cloudy SCT028 81 67     63%   83 29.97        
Jun 11 07:35 SSE 6 10 Partly Cloudy SCT005 71 70     96%   72 29.94        
Jun 11 00:55 SSE 10 10 Clear CLR 75 69     83%   76 29.92        
Jun 10 23:15 SSE 8 10 Clear CLR 76 69     79%   77 29.92        
Jun 10 20:55 ESE 6 10 Clear CLR 78 66     67%   79 29.86        
Jun 10 16:15 SSE 18 10 Clear CLR 86 65     48%   88 29.88        
Jun 10 10:55 SSE 11 10 Mostly Cloudy BKN027 81 67     63%   83 29.93        
Jun 10 08:55 SSE 9 10 Mostly Cloudy BKN065 74 66     76%   75 29.93        
Jun 10 04:15 SSE 5 10 Clear CLR 68 67     97%     29.87        
Jun 09 20:55 SSE 8 10 Partly Cloudy SCT085 73 68     84%   74 29.86        
Jun 09 20:35 SSE 7 10 Partly Cloudy SCT085 74 68     82%   75 29.86        
Notice The following observation data may not be complete
Jun 09 20:15   10 Partly Cloudy SCT075          %              
Jun 09 18:55 SE 10 10 Cloudy OVC065 77 67     72%   78 29.86        
Notice The following observation data may not be complete
Jun 09 16:15   10 Partly Cloudy SCT085          %              
Jun 09 10:35 N 5 10 Cloudy OVC050 71 64     80%   71 29.97        
Notice The following observation data may not be complete
Jun 09 08:15   10 Cloudy OVC048          %              
Jun 09 03:15 Calm 10 Partly Cloudy SCT120 69 60     73%     29.89        
Notice The following observation data may not be complete
Jun 09 01:55   10 Partly Cloudy SCT120          %              
Jun 08 23:35 SSE 5 10 Clear CLR 71 63     76%   71 29.91        
Jun 08 23:15 SSE 6 10 Clear CLR 71 63     77%   71 29.91        
Jun 08 19:55 E 6 10 Clear CLR 80 63     56%   80 29.89        
Jun 08 12:55 SSE 5 10 Partly Cloudy SCT050 SCT065 82 60     46%   82 30        
Notice The following observation data may not be complete
Jun 08 07:35   10 Mostly Cloudy BKN050          %              
Jun 08 05:15 Calm 10 Partly Cloudy SCT060 68 61     79%     29.97        
Jun 08 01:15 SSW 5 10 Clear CLR 72 64     78%   72 29.95        
Notice The following observation data may not be complete
Jun 07 21:15   10 Clear CLR          %              
Jun 07 18:35 NNE 6 10 Partly Cloudy SCT110 85 65     51%   87 29.9        
Jun 07 12:55 W 9 10 Mostly Cloudy BKN060 BKN070 87 66     50%   89 29.95        
Notice The following observation data may not be complete
Jun 06 10:15   10 Cloudy SCT015 BKN029 OVC035          %              
Notice The following observation data may not be complete
Jun 06 09:35   10 Mostly Cloudy SCT009 BKN015 BKN025          %              
Notice The following observation data may not be complete
Jun 06 09:15   10 Cloudy BKN009 OVC020          %              
Jun 06 05:15 WNW 8 10 Clear CLR 70 69     98%     29.8        
Jun 06 04:15 NW 9 10 Clear CLR 70 69     98%     29.8        
Jun 05 15:15 NE 9 10 Partly Cloudy SCT029 SCT036 81 69     65%   85 29.72        
Jun 05 14:15 N 7 10 Cloudy BKN027 OVC032 80 68     66%   83 29.75        
Jun 05 13:55 NNE 8 10 Cloudy BKN025 OVC035 80 69     67%   83 29.75